Location: *
(46.3500°N, 10.9000°E)
Time: 23:03:26
(UTC+00:00)

Explorer 7 - Pass Details

Date: 25 April 2021
Orbit: 484 x 677 km, 50.3° (Epoch: 06 May)

Event Time Altitude Azimuth Distance (km) Brightness Sun altitude
Rises 19:16:20 0° 269° (W) 2,624 11.4 -9.9°
Reaches altitude 10° 19:18:31 10° 275° (W) 1,764 10.5 -10.2°
Maximum altitude 19:22:26 51° 352° (N) 690 7.6 -10.8°
Drops below altitude 10° 19:26:37 10° 69° (ENE) 1,879 9.2 -11.4°
Enters shadow 19:27:52 - 73° (ENE) 2,364 9.7 -11.6°
Sets 19:29:01 0° 75° (ENE) 2,815 - -11.8°
